Change the Weather History Date:

Monday, August 5, 2013

  Actual Average Record
Temperature  
Mean Temperature 87 °F 81 °F  
Max Temperature 95 °F 91 °F 99 °F (1935)
Min Temperature 78 °F 72 °F 67 °F (1920)
Degree Days  
Heating Degree Days 0 0  
Month to date heating degree days 0 0  
Since 1 June heating degree days 0 0  
Since 1 July heating degree days 0 0  
Cooling Degree Days 22 16  
Month to date cooling degree days 92 80  
Year to date cooling degree days 1611 1531  
Since 1 June cooling degree days 1079 1021  
Growing Degree Days 36 (Base 50)    
Moisture  
Dew Point 75 °F    
Average Humidity 72    
Maximum Humidity 91    
Minimum Humidity 52    
Precipitation  
Precipitation 0.00 in 0.19 in 3.08 in (1905)
Month to date precipitation 0.61 1.00  
Year to date precipitation 34.51 30.18  
Snow  
Snow 0.00 in 0.00 in 0.00 in ()
Month to date snowfall 0.0 0.0  
Since 1 June snowfall 0.0 0.0  
Since 1 July snowfall 0.0 0.0  
Snow Depth 0.00 in    
Sea Level Pressure  
Sea Level Pressure 29.97 in    
Wind  
Wind Speed 5 mph (West)    
Max Wind Speed 15 mph    
Max Gust Speed 17 mph    
Visibility 6 miles    
Events Thunderstorm    
T = Trace of Precipitation, MM = Missing Value Source: NWS Daily Summary

Daily Weather History Graph

Daily Weather History Graph

Search for Another Location

Airport or City:

Trip Planner

Search our weather history database for the weather conditions in past years. The results will help you decide how hot, cold, wet, or windy it might be!

Date:

Astronomy

Aug. 05, 2013 Rise Set
Actual Time 6:51 AM EDT 8:18 PM EDT
Civil Twilight 6:25 AM EDT 8:44 PM EDT
Nautical Twilight 5:55 AM EDT 9:14 PM EDT
Astronomical Twilight 5:23 AM EDT 9:46 PM EDT
Moon 5:44 AM EDT (8/5) 7:21 PM EDT (8/5)
Length of Visible Light 14h 18m
Length of Day
13h 27m
Waning Crescent, 1% of the Moon is Illuminated
Aug 5
Waning Crescent
Aug 6
New
Aug 14
First Quarter
Aug 20
Full
Aug 28
Last Quarter

Hourly Weather History & Observations

Time (EDT) Temp. Heat Index Dew Point Humidity Pressure Visibility Wind Dir Wind Speed Gust Speed Precip Events Conditions
12:53 AM 81.0 °F 87.9 °F 77.0 °F 88% 30.01 in 8.0 mi West 5.8 mph - N/A   Clear
1:53 AM 80.1 °F 85.8 °F 77.0 °F 90% 29.98 in 7.0 mi WSW 4.6 mph - N/A   Clear
2:53 AM 80.1 °F 85.4 °F 75.9 °F 87% 29.97 in 6.0 mi Calm Calm - N/A   Clear
3:53 AM 79.0 °F - 75.9 °F 90% 29.96 in 5.0 mi Calm Calm - N/A   Clear
4:53 AM 79.0 °F - 75.9 °F 90% 29.96 in 5.0 mi West 3.5 mph - N/A   Partly Cloudy
5:53 AM 78.1 °F - 75.9 °F 93% 29.96 in 4.0 mi WSW 4.6 mph - N/A   Clear
6:53 AM 78.1 °F - 75.9 °F 93% 29.99 in 3.0 mi West 3.5 mph - N/A   Partly Cloudy
7:05 AM 78.8 °F - 75.2 °F 89% 30.00 in 2.5 mi Calm Calm - N/A   Clear
7:22 AM 78.8 °F - 75.2 °F 89% 30.00 in 3.0 mi Calm Calm - N/A   Clear
7:53 AM 79.0 °F - 75.9 °F 90% 29.99 in 4.0 mi West 4.6 mph - N/A   Clear
8:53 AM 82.0 °F 88.6 °F 75.0 °F 79% 30.00 in 6.0 mi WNW 4.6 mph - N/A   Haze
9:53 AM 86.0 °F 95.1 °F 75.0 °F 70% 30.01 in 6.0 mi NW 3.5 mph - N/A   Haze
10:53 AM 88.0 °F 95.6 °F 73.0 °F 61% 30.01 in 7.0 mi NNW 3.5 mph - N/A   Clear
11:53 AM 89.1 °F 96.0 °F 72.0 °F 57% 30.01 in 7.0 mi Calm Calm - N/A   Scattered Clouds
12:53 PM 91.0 °F 98.2 °F 72.0 °F 53% 29.99 in 7.0 mi West 5.8 mph - N/A   Mostly Cloudy
1:53 PM 91.0 °F 99.3 °F 73.0 °F 55% 29.96 in 7.0 mi WNW 4.6 mph - N/A   Mostly Cloudy
2:53 PM 91.0 °F 98.2 °F 72.0 °F 53% 29.94 in 7.0 mi NNW 5.8 mph - N/A   Scattered Clouds
3:53 PM 93.9 °F 103.4 °F 73.0 °F 51% 29.92 in 8.0 mi Variable 5.8 mph - N/A   Partly Cloudy
4:53 PM 90.0 °F 99.0 °F 73.9 °F 59% 29.92 in 7.0 mi WSW 9.2 mph - N/A   Mostly Cloudy
5:53 PM 89.1 °F 99.1 °F 75.0 °F 63% 29.91 in 7.0 mi WSW 11.5 mph - N/A   Mostly Cloudy
6:53 PM 88.0 °F 96.5 °F 73.9 °F 63% 29.91 in 7.0 mi WSW 6.9 mph - N/A   Clear
7:53 PM 86.0 °F 93.0 °F 73.0 °F 65% 29.93 in 7.0 mi SW 6.9 mph - N/A   Clear
8:53 PM 82.9 °F 90.2 °F 75.0 °F 77% 29.96 in 7.0 mi ENE 12.7 mph 17.3 mph N/A   Scattered Clouds
9:53 PM 81.0 °F 86.7 °F 75.0 °F 82% 29.98 in 7.0 mi Calm Calm - N/A   Mostly Cloudy
10:19 PM 80.6 °F 86.2 °F 75.2 °F 84% 30.00 in 7.0 mi Calm Calm - N/A   Overcast
10:49 PM 80.6 °F 86.2 °F 75.2 °F 84% 29.99 in 8.0 mi SE 3.5 mph - N/A Thunderstorm Mostly Cloudy
10:53 PM 80.1 °F 85.4 °F 75.9 °F 87% 29.98 in 8.0 mi Calm Calm - N/A Thunderstorm Thunderstorm
11:53 PM 79.0 °F - 75.0 °F 88% 29.98 in 6.0 mi ESE 3.5 mph - N/A   Clear